Regional Weather Roundup
Issued by NWS Cleveland, OH

Home | Current Version | Previous Version | Graphics & Text | Print | Product List | Glossary On
Versions: 1 2 3 4 5 6 7 8 9 10 11 12 13 14 15 16 17 18 19 20 21 22 23 24 25 26 27 28 29 30 31 32 33 34 35 36 37 38 39 40 41 42 43 44 45 46 47 48 49 50
000
ASUS41 KCLE 230810
RWRCLE
OHIO REGIONAL WEATHER ROUNDUP
NATIONAL WEATHER SERVICE CLEVELAND, OH
300 AM EST SUN NOV 23 2014

NOTE: "FAIR" INDICATES FEW OR NO CLOUDS BELOW 12,000 FEET WITH NO
SIGNIFICANT WEATHER AND/OR OBSTRUCTIONS TO VISIBILITY.

OHZ001>008-015>018-024>027-034-035-043-044-230900-
   NORTHWEST OHIO

CITY           SKY/WX    TMP DP  RH WIND       PRES   REMARKS
DEFIANCE       LGT RAIN  48  42  80 SW13      29.98R
FINDLAY        LGT RAIN  47  41  80 S10       30.00R
TOLEDO EXPRESS LGT RAIN  49  39  68 S8        29.98R
TOLEDO EXEC    CLOUDY    51  37  58 S10       30.00R
LIMA           LGT RAIN  47  42  83 SW13      30.01R
$$

OHZ009>014-019>023-028>033-038-089-230900-
   NORTHEAST OHIO

CITY           SKY/WX    TMP DP  RH WIND       PRES   REMARKS
CLE-HOPKINS    CLOUDY    49  34  56 S13       30.05S
CLE-LAKEFRONT  CLOUDY    52  34  50 S18       30.01S
CUY CO. ARPT   NOT AVBL
LORAIN-ELYRIA  CLOUDY    50  35  56 SW10      30.02S
ASHTABULA      CLOUDY    45  34  65 S8        30.04S
AKRON-CANTON   LGT RAIN  46  33  60 SW8       30.06R
WOOSTER        CLOUDY   N/A N/A N/A S8        30.06S
MANSFIELD      CLOUDY    48  37  65 S8        30.04R
YOUNGSTOWN     CLOUDY    48  32  53 SW10      30.05S
$$

OHZ042-051>053-060>062-070>072-077>081-230900-
  SOUTHWEST OHIO

CITY           SKY/WX    TMP DP  RH WIND       PRES   REMARKS
CINC-COVINGTON CLOUDY    52  35  52 S8        30.04S
CINC-LUNKEN    CLOUDY    45  38  76 CALM      30.06S
HAMILTON       CLOUDY    49  36  61 E6        30.04F
DAYTON         CLOUDY    51  35  54 S10       30.03F
WRIGHT-PAT AFB CLOUDY    49  39  66 S10       30.03F
DAYTON GENERAL CLOUDY    49  37  63 S7        30.03F
WILMINGTON     CLOUDY    47  36  65 S7        30.05S
$$

OHZ036-037-039>041-045>050-054>059-063>069-073>076-082>088-230900-
  CENTRAL AND SOUTHEAST OHIO

CITY           SKY/WX    TMP DP  RH WIND       PRES   REMARKS
COLUMBUS       CLOUDY    49  33  54 CALM      30.06S
OSU AIRPORT    LGT RAIN  46  36  68 SE5       30.05S
BOLTON FIELD   CLOUDY    46  36  67 S6        30.05S
RICKENBACK AFB CLOUDY    46  34  65 S7        30.05S
NEWARK         MOCLDY    40  33  76 CALM      30.06S
MARION         LGT RAIN  46  37  71 S9        30.04R
LANCASTER      CLOUDY    49  31  49 S8        30.06F
ZANESVILLE     CLOUDY    48  31  51 S6        30.08S
NEW PHILLY     LGT RAIN  46  34  62 SE5       30.09R
$$


USA.gov is the U.S. government's official web portal to all federal, state and local government web resources and services.